This is the latest recevied weather packets stored in our database for station/object XE3JAR. If no packets are shown the sender has not sent any weather packets the latest 10 day(s).
| Time | Temp. | Humidity | Pressure | Rain* | Wind** | Luminosity | Snow |
|---|---|---|---|---|---|---|---|
| 1777600371 | 31.11° C | 75% | 1010.8 hPa | - | - | - | - |
| 1777598545 | 32.22° C | 70% | 1010.5 hPa | - | - | - | - |
| 1777597636 | 32.78° C | 62% | 1010.5 hPa | - | - | - | - |
| 1777596416 | 32.78° C | 60% | 1010.2 hPa | - | - | - | - |
| 1777591144 | 37.22° C | 53% | 1009.5 hPa | - | - | - | - |
| 1777590096 | 37.22° C | 52% | 1009.5 hPa | - | - | - | - |
| 1777588570 | 38.89° C | 50% | 1009.1 hPa | - | - | - | - |
| 1777586452 | 41.11° C | 50% | 1009.5 hPa | - | - | - | - |
| 1777586143 | 41.11° C | 49% | 1009.5 hPa | - | - | - | - |
| 1777585861 | 42.22° C | 48% | 1009.5 hPa | - | - | - | - |
| 1777584623 | 42.78° C | 45% | 1009.8 hPa | - | - | - | - |
| 1777582910 | 42.78° C | 46% | 1010.5 hPa | - | - | - | - |
| 1777581728 | 46.11° C | 43% | 1010.5 hPa | - | - | - | - |
| 1777577117 | 42.78° C | 46% | 1011.8 hPa | - | - | - | - |
| 1777576814 | 43.89° C | 46% | 1011.8 hPa | - | - | - | - |
| 1777574991 | 42.78° C | 48% | 1012.2 hPa | - | - | - | - |
| 1777574373 | 42.22° C | 49% | 1012.5 hPa | - | - | - | - |
| 1777572247 | 45° C | 45% | 1012.9 hPa | - | - | - | - |
| 1777571637 | 46.11° C | 46% | 1012.9 hPa | - | - | - | - |
| 1777571021 | 42.78° C | 49% | 1013.2 hPa | - | - | - | - |
| 1777569812 | 42.78° C | 50% | 1013.6 hPa | - | - | - | - |
| 1777568621 | 42.22° C | 53% | 1013.6 hPa | - | - | - | - |
| 1777568291 | 42.22° C | 52% | 1013.6 hPa | - | - | - | - |
| 1777567396 | 42.22° C | 54% | 1013.9 hPa | - | - | - | - |
| 1777566158 | 41.11° C | 55% | 1013.9 hPa | - | - | - | - |
* Rain since midnight (hover to see other rain measurements)
** Current wind speed in m/s (hover to see current wind gust speed)